EW7199 Weather Reports


Display with metric or nautical units.
time (UTC)temp
F
wind
direction
speed
MPH
gust
MPH
rain 1hr
in
rain 24hr
in
rain mn
in
humidity
%
barometer
mb
20260904234411 82 134 0.0 1.0 0.00 0.00 0.00 43 1017.2
20260904233911 82 133 2.0 3.0 0.00 0.00 0.00 42 1017.2
20260904232911 82 357 1.0 3.0 0.00 0.00 0.00 40 1017.2
20260904232410 82 65 1.0 2.0 0.00 0.00 0.00 41 1017.2
20260904231411 82 35 2.0 3.0 0.00 0.00 0.00 44 1017.2
20260904230911 82 67 1.0 3.0 0.00 0.00 0.00 45 1017.3
20260904230410 82 108 1.0 3.0 0.00 0.00 0.00 46 1017.4
20260904225912 83 126 1.0 3.0 0.00 0.00 0.00 44 1017.4
20260904225410 83 232 0.0 3.0 0.00 0.00 0.00 39 1017.4
20260904224911 83 237 2.0 3.0 0.00 0.00 0.00 38 1017.4
20260904224411 82 305 1.0 3.0 0.00 0.00 0.00 41 1017.4
20260904223911 82 266 0.0 5.0 0.00 0.00 0.00 45 1017.4
20260904223412 81 89 0.0 5.0 0.00 0.00 0.00 51 1017.4
20260904222911 81 112 0.0 0.0 0.00 0.00 0.00 53 1017.4
20260904222411 82 112 0.0 2.0 0.00 0.00 0.00 53 1017.4
20260904221911 82 114 0.0 2.0 0.00 0.00 0.00 49 1017.5
20260904221410 82 117 0.0 0.0 0.00 0.00 0.00 50 1017.5
20260904220910 82 116 1.0 3.0 0.00 0.00 0.00 46 1017.5
20260904220411 83 144 0.0 2.0 0.00 0.00 0.00 42 1017.5
20260904215911 83 131 0.0 2.0 0.00 0.00 0.00 41 1017.4
20260904215410 83 118 1.0 3.0 0.00 0.00 0.00 40 1017.4
20260904214910 83 138 1.0 3.0 0.00 0.00 0.00 42 1017.4
20260904214411 83 258 0.0 2.0 0.00 0.00 0.00 40 1017.4
20260904213911 83 261 1.0 3.0 0.00 0.00 0.00 39 1017.2
20260904213411 84 254 1.0 2.0 0.00 0.00 0.00 41 1017.1
20260904212910 84 254 1.0 2.0 0.00 0.00 0.00 42 1017.2
20260904212411 84 263 1.0 3.0 0.00 0.00 0.00 40 1017.2
20260904211911 85 256 2.0 3.0 0.00 0.00 0.00 34 1017.2
20260904211411 85 261 1.0 3.0 0.00 0.00 0.00 31 1017.1
20260904210410 85 50 1.0 3.0 0.00 0.00 0.00 31 1017.1
20260904205410 85 283 2.0 3.0 0.00 0.00 0.00 33 1017.2
20260904204912 85 281 2.0 3.0 0.00 0.00 0.00 33 1017.2
20260904204413 85 257 2.0 2.0 0.00 0.00 0.00 32 1017.2
20260904203910 85 257 2.0 3.0 0.00 0.00 0.00 32 1017.2
20260904203411 85 270 2.0 3.0 0.00 0.00 0.00 32 1017.2
20260904202910 85 293 1.0 3.0 0.00 0.00 0.00 32 1017.2
20260904202410 85 313 1.0 3.0 0.00 0.00 0.00 32 1017.2
20260904201911 85 226 1.0 3.0 0.00 0.00 0.00 32 1017.2
20260904201411 85 58 1.0 3.0 0.00 0.00 0.00 32 1017.3
20260904200911 85 288 1.0 3.0 0.00 0.00 0.00 33 1017.2
20260904200410 85 340 1.0 3.0 0.00 0.00 0.00 32 1017.2
20260904195911 85 315 2.0 3.0 0.00 0.00 0.00 33 1017.3
20260904194911 85 314 2.0 3.0 0.00 0.00 0.00 34 1017.3
20260904193910 84 293 2.0 3.0 0.00 0.00 0.00 34 1017.2
20260904193411 84 312 2.0 3.0 0.00 0.00 0.00 35 1017.2
20260904192911 84 293 3.0 3.0 0.00 0.00 0.00 36 1017.2
20260904192411 84 306 2.0 3.0 0.00 0.00 0.00 37 1017.2
20260904191910 84 288 1.0 3.0 0.00 0.00 0.00 39 1017.2
20260904191410 84 291 1.0 3.0 0.00 0.00 0.00 39 1017.2
20260904190910 85 299 1.0 3.0 0.00 0.00 0.00 40 1017.3
20260904190411 85 45 2.0 3.0 0.00 0.00 0.00 39 1017.3
20260904185909 85 355 1.0 3.0 0.00 0.00 0.00 39 1017.2
20260904185412 85 349 1.0 3.0 0.00 0.00 0.00 39 1017.1
20260904184910 86 288 1.0 3.0 0.00 0.00 0.00 39 1017.1
20260904184410 86 294 2.0 3.0 0.00 0.00 0.00 38 1017.1
20260904183910 86 317 1.0 3.0 0.00 0.00 0.00 38 1017.1
20260904183411 86 297 1.0 3.0 0.00 0.00 0.00 38 1017.0
20260904182910 86 72 2.0 3.0 0.00 0.00 0.00 38 1017.0
20260904182410 86 312 2.0 3.0 0.00 0.00 0.00 39 1017.0
20260904181911 86 13 1.0 3.0 0.00 0.00 0.00 39 1016.9
20260904181411 86 297 1.0 3.0 0.00 0.00 0.00 40 1016.9
20260904180910 86 358 1.0 3.0 0.00 0.00 0.00 40 1016.8
20260904180411 87 36 2.0 3.0 0.00 0.00 0.00 40 1016.8
20260904175910 87 39 1.0 3.0 0.00 0.00 0.00 39 1016.8
20260904174911 87 23 2.0 3.0 0.00 0.00 0.00 38 1016.6
20260904174411 87 18 2.0 3.0 0.00 0.00 0.00 37 1016.6
20260904173910 87 42 2.0 3.0 0.00 0.00 0.00 38 1016.5
20260904173411 88 29 2.0 3.0 0.00 0.00 0.00 38 1016.5
20260904172911 88 332 2.0 3.0 0.00 0.00 0.00 37 1016.4
20260904172411 88 27 2.0 3.0 0.00 0.00 0.00 36 1016.4
20260904171410 89 338 2.0 3.0 0.00 0.00 0.00 34 1016.4
20260904170910 90 38 1.0 3.0 0.00 0.00 0.00 33 1016.4
20260904170410 90 25 2.0 3.0 0.00 0.00 0.00 32 1016.3
20260904165409 91 22 2.0 3.0 0.00 0.00 0.00 30 1016.2
20260904164410 91 23 1.0 3.0 0.00 0.00 0.00 30 1016.1
20260904163910 91 233 1.0 3.0 0.00 0.00 0.00 30 1016.1
20260904163410 91 47 2.0 3.0 0.00 0.00 0.00 30 1016.1
20260904162911 91 23 2.0 3.0 0.00 0.00 0.00 30 1016.1
20260904162410 92 28 2.0 3.0 0.00 0.00 0.00 29 1016.0
20260904161911 92 314 1.0 3.0 0.00 0.00 0.00 31 1016.0
20260904161410 92 29 2.0 3.0 0.00 0.00 0.00 30 1016.0
20260904160911 92 37 2.0 3.0 0.00 0.00 0.00 30 1015.9
20260904160410 92 60 1.0 3.0 0.00 0.00 0.00 30 1015.9
20260904155910 92 37 2.0 3.0 0.00 0.00 0.00 30 1015.9
20260904155410 92 45 2.0 3.0 0.00 0.00 0.00 29 1015.9
20260904154910 92 46 2.0 3.0 0.00 0.00 0.00 29 1015.8
20260904154410 92 357 2.0 3.0 0.00 0.00 0.00 28 1015.8
20260904153910 93 36 2.0 3.0 0.00 0.00 0.00 28 1015.9
20260904153410 93 8 2.0 3.0 0.00 0.00 0.00 28 1015.9
20260904152909 93 23 1.0 3.0 0.00 0.00 0.00 28 1015.9
20260904151910 93 226 1.0 5.0 0.00 0.00 0.00 28 1015.9
20260904151410 93 30 2.0 3.0 0.00 0.00 0.00 28 1015.9
20260904150910 93 96 1.0 3.0 0.00 0.00 0.00 28 1015.9
20260904150410 93 324 3.0 3.0 0.00 0.00 0.00 27 1015.9
20260904145910 93 278 1.0 3.0 0.00 0.00 0.00 28 1015.8
20260904144910 94 92 1.0 3.0 0.00 0.00 0.00 28 1015.8
20260904143411 94 327 2.0 3.0 0.00 0.00 0.00 29 1015.8
20260904142410 93 54 2.0 3.0 0.00 0.00 0.00 29 1015.7
20260904141910 93 3 2.0 3.0 0.00 0.00 0.00 30 1015.6
20260904141411 93 54 2.0 3.0 0.00 0.00 0.00 30 1015.7
20260904140411 93 21 3.0 5.0 0.00 0.00 0.00 30 1015.6
20260904135410 93 11 2.0 3.0 0.00 0.00 0.00 33 1015.7
20260904134909 93 50 2.0 3.0 0.00 0.00 0.00 33 1015.7
20260904134411 93 45 2.0 3.0 0.00 0.00 0.00 32 1015.8
20260904133912 93 76 1.0 3.0 0.00 0.00 0.00 32 1015.8
20260904133410 94 71 2.0 3.0 0.00 0.00 0.00 32 1015.9
20260904132911 93 255 1.0 3.0 0.00 0.00 0.00 32 1015.9
20260904131910 93 32 2.0 3.0 0.00 0.00 0.00 33 1015.9
20260904131410 93 58 2.0 5.0 0.00 0.00 0.00 32 1016.0
20260904130911 93 356 2.0 5.0 0.00 0.00 0.00 32 1016.0
20260904130411 93 357 1.0 3.0 0.00 0.00 0.00 33 1016.0
20260904125910 92 66 3.0 3.0 0.00 0.00 0.00 33 1015.9
20260904125411 93 73 2.0 3.0 0.00 0.00 0.00 33 1016.0
20260904124910 92 321 2.0 3.0 0.00 0.00 0.00 35 1016.0
20260904124411 92 204 2.0 5.0 0.00 0.00 0.00 34 1016.1
20260904123911 92 60 2.0 5.0 0.00 0.00 0.00 35 1016.1
20260904123410 92 32 2.0 3.0 0.00 0.00 0.00 35 1016.1
20260904122910 92 45 3.0 5.0 0.00 0.00 0.00 35 1016.2
20260904122410 92 56 3.0 5.0 0.00 0.00 0.00 34 1016.1
20260904121410 92 39 3.0 5.0 0.00 0.00 0.00 34 1016.2
20260904120910 92 66 3.0 3.0 0.00 0.00 0.00 33 1016.2
20260904120410 92 37 3.0 3.0 0.00 0.00 0.00 33 1016.2
20260904115410 93 71 2.0 3.0 0.00 0.00 0.00 32 1016.4
20260904114411 93 46 2.0 5.0 0.00 0.00 0.00 33 1016.4
20260904113911 93 15 3.0 5.0 0.00 0.00 0.00 33 1016.4
20260904113411 93 63 3.0 3.0 0.00 0.00 0.00 33 1016.5
20260904112910 93 40 2.0 3.0 0.00 0.00 0.00 32 1016.5
20260904112411 93 43 3.0 5.0 0.00 0.00 0.00 32 1016.5
20260904111910 93 32 2.0 3.0 0.00 0.00 0.00 32 1016.5
20260904111410 92 75 2.0 3.0 0.00 0.00 0.00 31 1016.5
20260904110910 93 40 3.0 3.0 0.00 0.00 0.00 31 1016.5
20260904110410 93 22 2.0 3.0 0.00 0.00 0.00 31 1016.5
20260904105910 93 1 2.0 3.0 0.00 0.00 0.00 32 1016.5
20260904105411 92 50 2.0 3.0 0.00 0.00 0.00 32 1016.5
20260904104911 93 61 3.0 3.0 0.00 0.00 0.00 32 1016.5
20260904104411 92 28 2.0 3.0 0.00 0.00 0.00 32 1016.5
20260904103910 92 61 2.0 3.0 0.00 0.00 0.00 33 1016.5
20260904103408 92 38 2.0 3.0 0.00 0.00 0.00 33 1016.6
20260904102910 93 32 2.0 3.0 0.00 0.00 0.00 33 1016.6
20260904101911 92 28 2.0 3.0 0.00 0.00 0.00 34 1016.7
20260904101409 92 30 2.0 3.0 0.00 0.00 0.00 34 1016.7
20260904100910 92 355 1.0 3.0 0.00 0.00 0.00 35 1016.7
20260904100411 92 16 2.0 3.0 0.00 0.00 0.00 35 1016.7
20260904095410 91 336 1.0 3.0 0.00 0.00 0.00 36 1016.8
20260904094910 91 58 2.0 3.0 0.00 0.00 0.00 36 1016.7
20260904094410 91 62 2.0 3.0 0.00 0.00 0.00 37 1016.8
20260904093910 91 35 2.0 3.0 0.00 0.00 0.00 37 1016.7
20260904093410 90 30 2.0 3.0 0.00 0.00 0.00 38 1016.7
20260904092910 91 43 2.0 3.0 0.00 0.00 0.00 40 1016.8
20260904092410 91 35 2.0 3.0 0.00 0.00 0.00 40 1016.8
20260904091910 91 338 2.0 3.0 0.00 0.00 0.00 41 1016.8
20260904091410 90 197 1.0 3.0 0.00 0.00 0.00 42 1016.9
20260904090911 90 185 3.0 5.0 0.00 0.00 0.00 44 1016.8
20260904090409 90 35 2.0 3.0 0.00 0.00 0.00 43 1016.8
20260904085910 90 117 2.0 3.0 0.00 0.00 0.00 44 1016.8
20260904085410 89 262 2.0 3.0 0.00 0.00 0.00 46 1016.8
20260904084911 89 13 2.0 3.0 0.00 0.00 0.00 47 1016.8
20260904084410 89 17 1.0 3.0 0.00 0.00 0.00 48 1016.8
20260904083911 89 311 2.0 3.0 0.00 0.00 0.00 49 1016.9
20260904083410 89 327 1.0 3.0 0.00 0.00 0.00 49 1016.8
20260904082909 89 32 2.0 3.0 0.00 0.00 0.00 51 1016.8
20260904082411 89 0 2.0 3.0 0.00 0.00 0.00 50 1016.8
20260904081411 88 46 1.0 3.0 0.00 0.00 0.00 52 1016.8
20260904080410 88 253 2.0 3.0 0.00 0.00 0.00 53 1016.6
20260904075910 87 185 1.0 3.0 0.00 0.00 0.00 54 1016.6
20260904075410 87 49 1.0 3.0 0.00 0.00 0.00 55 1016.5
20260904074910 86 0 2.0 3.0 0.00 0.00 0.00 56 1016.4
20260904074410 86 319 1.0 5.0 0.00 0.00 0.00 58 1016.4
20260904073410 86 293 2.0 3.0 0.00 0.00 0.00 58 1016.2
20260904072911 85 242 1.0 3.0 0.00 0.00 0.00 59 1016.3
20260904071910 85 330 3.0 5.0 0.00 0.00 0.00 60 1016.1
20260904071409 85 298 2.0 3.0 0.00 0.00 0.00 60 1016.1
20260904070911 84 307 2.0 3.0 0.00 0.00 0.00 61 1016.1
20260904070410 84 283 2.0 3.0 0.00 0.00 0.00 61 1016.1
20260904065410 84 180 2.0 3.0 0.00 0.00 0.00 60 1016.0
20260904064909 84 22 1.0 3.0 0.00 0.00 0.00 61 1015.9
20260904064409 84 288 2.0 3.0 0.00 0.00 0.00 62 1015.9
20260904063911 83 353 0.0 3.0 0.00 0.00 0.00 63 1015.9
20260904062910 83 307 2.0 3.0 0.00 0.00 0.00 63 1016.0
20260904062410 82 323 2.0 3.0 0.00 0.00 0.00 63 1015.9
20260904061910 82 291 2.0 3.0 0.00 0.00 0.00 63 1016.0
20260904061410 82 313 1.0 3.0 0.00 0.00 0.00 64 1016.0
20260904060410 80 262 1.0 3.0 0.00 0.00 0.00 67 1015.9
20260904055909 80 261 2.0 3.0 0.00 0.00 0.00 67 1016.0
20260904055410 80 282 2.0 3.0 0.00 0.00 0.00 67 1015.9
20260904054909 80 260 2.0 3.0 0.00 0.00 0.00 67 1015.9
20260904054409 79 252 2.0 3.0 0.00 0.00 0.00 67 1015.8
20260904053909 79 253 2.0 3.0 0.00 0.00 0.00 67 1015.8
20260904053410 80 235 2.0 3.0 0.00 0.00 0.00 66 1015.8
20260904052910 80 264 2.0 3.0 0.00 0.00 0.00 65 1015.8
20260904052409 81 253 2.0 3.0 0.00 0.00 0.00 63 1015.7
20260904051910 80 268 2.0 3.0 0.00 0.00 0.00 62 1015.7
20260904051410 80 266 2.0 3.0 0.00 0.00 0.00 62 1015.6
20260904050909 80 267 2.0 3.0 0.00 0.00 0.00 62 1015.6
20260904050409 80 262 2.0 3.0 0.00 0.00 0.00 62 1015.5
20260904045908 80 244 2.0 3.0 0.00 0.00 0.00 63 1015.5
20260904045410 80 243 2.0 3.0 0.00 0.00 0.00 62 1015.5
20260904044910 80 278 2.0 3.0 0.00 0.00 0.00 62 1015.4
20260904044411 80 307 2.0 3.0 0.00 0.00 0.00 62 1015.3
20260904043909 80 295 3.0 3.0 0.00 0.00 0.00 62 1015.2
20260904043410 80 290 3.0 3.0 0.00 0.00 0.00 62 1015.2
20260904042910 80 311 2.0 5.0 0.00 0.00 0.00 63 1015.2
20260904042411 80 279 1.0 3.0 0.00 0.00 0.00 63 1015.2
20260904041410 80 299 2.0 3.0 0.00 0.00 0.00 63 1015.2
20260904040910 80 298 3.0 3.0 0.00 0.00 0.00 63 1015.1
20260904040411 80 271 3.0 3.0 0.00 0.00 0.00 63 1015.1
20260904035910 80 276 2.0 3.0 0.00 0.00 0.00 62 1015.0
20260904035410 80 238 1.0 3.0 0.00 0.00 0.00 60 1015.0
20260904034409 81 265 2.0 3.0 0.00 0.00 0.00 59 1015.0
20260904033909 81 245 2.0 3.0 0.00 0.00 0.00 59 1015.0
20260904033410 81 252 2.0 3.0 0.00 0.00 0.00 57 1015.1
20260904032910 81 310 2.0 3.0 0.00 0.00 0.00 57 1015.1
20260904031910 81 299 2.0 3.0 0.00 0.00 0.00 56 1015.0
20260904031410 81 293 2.0 3.0 0.00 0.00 0.00 56 1015.1
20260904030409 81 294 2.0 3.0 0.00 0.00 0.00 56 1015.1
20260904025909 81 292 2.0 3.0 0.00 0.00 0.00 56 1015.2
20260904025409 81 282 2.0 3.0 0.00 0.00 0.00 56 1015.2
20260904024409 81 289 2.0 3.0 0.00 0.00 0.00 56 1015.3
20260904023909 81 249 2.0 3.0 0.00 0.00 0.00 56 1015.2
20260904022909 81 279 3.0 3.0 0.00 0.00 0.00 56 1015.2
20260904022410 81 269 2.0 3.0 0.00 0.00 0.00 56 1015.2
20260904021915 80 279 2.0 3.0 0.00 0.00 0.00 56 1015.2
20260904021412 80 268 2.0 3.0 0.00 0.00 0.00 56 1015.2
20260904020409 80 267 3.0 3.0 0.00 0.00 0.00 56 1015.2
20260904015909 81 263 2.0 3.0 0.00 0.00 0.00 58 1015.3
20260904014908 80 292 2.0 3.0 0.00 0.00 0.00 57 1015.3
20260904013410 81 243 2.0 3.0 0.00 0.00 0.00 58 1015.1
20260904012909 80 263 3.0 3.0 0.00 0.00 0.00 58 1015.1
20260904011909 80 266 3.0 3.0 0.00 0.00 0.00 59 1015.1
20260904011410 80 263 2.0 3.0 0.00 0.00 0.00 59 1015.0
20260904010909 80 275 2.0 3.0 0.00 0.00 0.00 60 1015.1
20260904010409 80 261 3.0 3.0 0.00 0.00 0.00 59 1015.0
20260904005910 80 256 3.0 3.0 0.00 0.00 0.00 60 1015.0
20260904005410 81 263 2.0 3.0 0.00 0.00 0.00 61 1015.0
20260904004910 81 236 3.0 3.0 0.00 0.00 0.00 59 1015.0
20260904003909 81 275 2.0 3.0 0.00 0.00 0.00 59 1015.0
20260904003410 80 259 2.0 3.0 0.00 0.00 0.00 60 1015.0
20260904002410 80 249 2.0 3.0 0.00 0.00 0.00 61 1015.1
20260904001910 80 222 2.0 3.0 0.00 0.00 0.00 61 1015.1
20260904001409 80 257 2.0 3.0 0.00 0.00 0.00 62 1015.1
20260904000909 80 233 2.0 3.0 0.00 0.00 0.00 62 1015.1
20260904000410 80 240 2.0 3.0 0.00 0.00 0.00 62 1015.0
20260903235908 80 239 2.0 3.0 0.00 0.00 0.00 62 1015.0
20260903235409 80 249 2.0 2.0 0.00 0.00 0.00 61 1015.0
20260903234909 80 235 2.0 3.0 0.00 0.00 0.00 62 1015.0